Year,Month,Day,Hour,Minute,Value (Times are PST for temperature in C)
2014,02,13,00,00,4.30
2014,02,13,00,01,4.30
2014,02,13,00,02,4.30
2014,02,13,00,03,4.30
2014,02,13,00,04,4.30
2014,02,13,00,05,4.30
2014,02,13,00,06,4.30
2014,02,13,00,07,4.30
2014,02,13,00,08,4.40
2014,02,13,00,09,4.40
2014,02,13,00,10,4.40
2014,02,13,00,11,4.40
2014,02,13,00,12,4.40
2014,02,13,00,13,4.40
2014,02,13,00,14,4.40
2014,02,13,00,15,4.40
2014,02,13,00,16,4.40
2014,02,13,00,17,4.40
2014,02,13,00,18,4.30
2014,02,13,00,19,4.30
2014,02,13,00,20,4.30
2014,02,13,00,21,4.30
2014,02,13,00,22,4.30
2014,02,13,00,23,4.30
2014,02,13,00,24,4.30
2014,02,13,00,25,4.30
2014,02,13,00,26,4.30
2014,02,13,00,27,4.30
2014,02,13,00,28,4.30
2014,02,13,00,29,4.40
2014,02,13,00,30,4.40
2014,02,13,00,31,4.40
2014,02,13,00,32,4.40
2014,02,13,00,33,4.40
2014,02,13,00,34,4.40
2014,02,13,00,35,4.40
2014,02,13,00,36,4.40
2014,02,13,00,37,4.40
2014,02,13,00,38,4.40
2014,02,13,00,39,4.50
2014,02,13,00,40,4.50
2014,02,13,00,41,4.50
2014,02,13,00,42,4.50
2014,02,13,00,43,4.50
2014,02,13,00,44,4.60
2014,02,13,00,45,4.60
2014,02,13,00,46,4.50
2014,02,13,00,47,4.60
2014,02,13,00,48,4.60
2014,02,13,00,49,4.60
2014,02,13,00,50,4.50
2014,02,13,00,51,4.50
2014,02,13,00,52,4.50
2014,02,13,00,53,4.40
2014,02,13,00,54,4.40
2014,02,13,00,55,4.40
2014,02,13,00,56,4.40
2014,02,13,00,57,4.40
2014,02,13,00,58,4.40
2014,02,13,00,59,4.40
2014,02,13,01,00,4.30
2014,02,13,01,01,4.30
2014,02,13,01,02,4.30
2014,02,13,01,03,4.30
2014,02,13,01,04,4.30
2014,02,13,01,05,4.30
2014,02,13,01,06,4.30
2014,02,13,01,07,4.30
2014,02,13,01,08,4.30
2014,02,13,01,09,4.30
2014,02,13,01,10,4.30
2014,02,13,01,11,4.30
2014,02,13,01,12,4.30
2014,02,13,01,13,4.30
2014,02,13,01,14,4.30
2014,02,13,01,15,4.30
2014,02,13,01,16,4.30
2014,02,13,01,17,4.30
2014,02,13,01,18,4.30
2014,02,13,01,19,4.30
2014,02,13,01,20,4.30
2014,02,13,01,21,4.30
2014,02,13,01,22,4.30
2014,02,13,01,23,4.30
2014,02,13,01,24,4.30
2014,02,13,01,25,4.30
2014,02,13,01,26,4.30
2014,02,13,01,27,4.30
2014,02,13,01,28,4.20
2014,02,13,01,29,4.20
2014,02,13,01,30,4.20
2014,02,13,01,31,4.20
2014,02,13,01,32,4.20
2014,02,13,01,33,4.20
2014,02,13,01,34,4.20
2014,02,13,01,35,4.20
2014,02,13,01,36,4.20
2014,02,13,01,37,4.20
2014,02,13,01,38,4.30
2014,02,13,01,39,4.30
2014,02,13,01,40,4.30
2014,02,13,01,41,4.30
2014,02,13,01,42,4.30
2014,02,13,01,43,4.30
2014,02,13,01,44,4.30
2014,02,13,01,45,4.30
2014,02,13,01,46,4.40
2014,02,13,01,47,4.40
2014,02,13,01,48,4.40
2014,02,13,01,49,4.50
2014,02,13,01,50,4.50
2014,02,13,01,51,4.50
2014,02,13,01,52,4.50
2014,02,13,01,53,4.50
2014,02,13,01,54,4.40
2014,02,13,01,55,4.50
2014,02,13,01,56,4.50
2014,02,13,01,57,4.60
2014,02,13,01,58,4.60
2014,02,13,01,59,4.70
2014,02,13,02,00,4.80
2014,02,13,02,01,4.80
2014,02,13,02,02,4.90
2014,02,13,02,03,4.90
2014,02,13,02,04,4.90
2014,02,13,02,05,4.90
2014,02,13,02,06,5.00
2014,02,13,02,07,5.00
2014,02,13,02,08,5.10
2014,02,13,02,09,5.10
2014,02,13,02,10,5.10
2014,02,13,02,11,5.10
2014,02,13,02,12,5.00
2014,02,13,02,13,5.00
2014,02,13,02,14,5.00
2014,02,13,02,15,5.00
2014,02,13,02,16,5.00
2014,02,13,02,17,5.00
2014,02,13,02,18,4.90
2014,02,13,02,19,4.90
2014,02,13,02,20,4.90
2014,02,13,02,21,5.00
2014,02,13,02,22,5.00
2014,02,13,02,23,5.00
2014,02,13,02,24,5.00
2014,02,13,02,25,5.10
2014,02,13,02,26,5.00
2014,02,13,02,27,5.10
2014,02,13,02,28,5.10
2014,02,13,02,29,5.10
2014,02,13,02,30,5.00
2014,02,13,02,31,5.10
2014,02,13,02,32,5.10
2014,02,13,02,33,5.10
2014,02,13,02,34,5.10
2014,02,13,02,35,5.10
2014,02,13,02,36,5.20
2014,02,13,02,37,5.30
2014,02,13,02,38,5.30
2014,02,13,02,39,5.30
2014,02,13,02,40,5.30
2014,02,13,02,41,5.30
2014,02,13,02,42,5.40
2014,02,13,02,43,5.40
2014,02,13,02,44,5.40
2014,02,13,02,45,5.40
2014,02,13,02,46,5.40
2014,02,13,02,47,5.40
2014,02,13,02,48,5.40
2014,02,13,02,49,5.40
2014,02,13,02,50,5.30
2014,02,13,02,51,5.30
2014,02,13,02,52,5.30
2014,02,13,02,53,5.30
2014,02,13,02,54,5.30
2014,02,13,02,55,5.20
2014,02,13,02,56,5.20
2014,02,13,02,57,5.20
2014,02,13,02,58,5.20
2014,02,13,02,59,5.10
2014,02,13,03,00,5.10
2014,02,13,03,01,5.10
2014,02,13,03,02,5.10
2014,02,13,03,03,5.10
2014,02,13,03,04,5.10
2014,02,13,03,05,5.20
2014,02,13,03,06,5.20
2014,02,13,03,07,5.30
2014,02,13,03,08,5.40
2014,02,13,03,09,5.50
2014,02,13,03,10,5.40
2014,02,13,03,11,5.40
2014,02,13,03,12,5.40
2014,02,13,03,13,5.30
2014,02,13,03,14,5.30
2014,02,13,03,15,5.30
2014,02,13,03,16,5.30
2014,02,13,03,17,5.30
2014,02,13,03,18,5.30
2014,02,13,03,19,5.30
2014,02,13,03,20,5.20
2014,02,13,03,21,5.20
2014,02,13,03,22,5.20
2014,02,13,03,23,5.30
2014,02,13,03,24,5.30
2014,02,13,03,25,5.30
2014,02,13,03,26,5.20
2014,02,13,03,27,5.10
2014,02,13,03,28,5.10
2014,02,13,03,29,5.10
2014,02,13,03,30,5.00
2014,02,13,03,31,4.90
2014,02,13,03,32,4.90
2014,02,13,03,33,5.00
2014,02,13,03,34,5.00
2014,02,13,03,35,4.80
2014,02,13,03,36,4.70
2014,02,13,03,37,4.80
2014,02,13,03,38,4.80
2014,02,13,03,39,4.90
2014,02,13,03,40,4.90
2014,02,13,03,41,4.90
2014,02,13,03,42,5.00
2014,02,13,03,43,5.00
2014,02,13,03,44,5.00
2014,02,13,03,45,5.10
2014,02,13,03,46,5.10
2014,02,13,03,47,5.10
2014,02,13,03,48,5.20
2014,02,13,03,49,5.30
2014,02,13,03,50,5.30
2014,02,13,03,51,5.40
2014,02,13,03,52,5.50
2014,02,13,03,53,5.50
2014,02,13,03,54,5.70
2014,02,13,03,55,5.70
2014,02,13,03,56,5.80
2014,02,13,03,57,5.90
2014,02,13,03,58,6.00
2014,02,13,03,59,6.10
2014,02,13,04,00,6.20
2014,02,13,04,01,6.20
2014,02,13,04,02,6.30
2014,02,13,04,03,6.30
2014,02,13,04,04,6.30
2014,02,13,04,05,6.30
2014,02,13,04,06,6.30
2014,02,13,04,07,6.30
2014,02,13,04,08,6.20
2014,02,13,04,09,6.10
2014,02,13,04,10,6.10
2014,02,13,04,11,6.00
2014,02,13,04,12,6.00
2014,02,13,04,13,6.00
2014,02,13,04,14,6.00
2014,02,13,04,15,5.90
2014,02,13,04,16,5.90
2014,02,13,04,17,5.90
2014,02,13,04,18,5.80
2014,02,13,04,19,5.70
2014,02,13,04,20,5.70
2014,02,13,04,21,5.70
2014,02,13,04,22,5.60
2014,02,13,04,23,5.50
2014,02,13,04,24,5.50
2014,02,13,04,25,5.40
2014,02,13,04,26,5.40
2014,02,13,04,27,5.30
2014,02,13,04,28,5.30
2014,02,13,04,29,5.30
2014,02,13,04,30,5.30
2014,02,13,04,31,5.30
2014,02,13,04,32,5.30
2014,02,13,04,33,5.30
2014,02,13,04,34,5.30
2014,02,13,04,35,5.20
2014,02,13,04,36,5.20
2014,02,13,04,37,5.20
2014,02,13,04,38,5.30
2014,02,13,04,39,5.30
2014,02,13,04,40,5.30
2014,02,13,04,41,5.30
2014,02,13,04,42,5.30
2014,02,13,04,43,5.40
2014,02,13,04,44,5.40
2014,02,13,04,45,5.40
2014,02,13,04,46,5.50
2014,02,13,04,47,5.50
2014,02,13,04,48,5.50
2014,02,13,04,49,5.50
2014,02,13,04,50,5.50
2014,02,13,04,51,5.50
2014,02,13,04,52,5.60
2014,02,13,04,53,5.60
2014,02,13,04,54,5.60
2014,02,13,04,55,5.70
2014,02,13,04,56,5.70
2014,02,13,04,57,5.70
2014,02,13,04,58,5.70
2014,02,13,04,59,5.90
2014,02,13,05,00,6.10
2014,02,13,05,01,6.30
2014,02,13,05,02,6.40
2014,02,13,05,03,6.60
2014,02,13,05,04,6.70
2014,02,13,05,05,6.80
2014,02,13,05,06,6.80
2014,02,13,05,07,6.90
2014,02,13,05,08,7.00
2014,02,13,05,09,7.10
2014,02,13,05,10,7.10
2014,02,13,05,11,7.10
2014,02,13,05,12,7.10
2014,02,13,05,13,7.00
2014,02,13,05,14,7.00
2014,02,13,05,15,7.00
2014,02,13,05,16,7.00
2014,02,13,05,17,7.00
2014,02,13,05,18,7.00
2014,02,13,05,19,7.10
2014,02,13,05,20,7.20
2014,02,13,05,21,7.20
2014,02,13,05,22,7.20
2014,02,13,05,23,7.20
2014,02,13,05,24,7.20
2014,02,13,05,25,7.20
2014,02,13,05,26,7.20
2014,02,13,05,27,7.20
2014,02,13,05,28,7.20
2014,02,13,05,29,7.30
2014,02,13,05,30,7.30
2014,02,13,05,31,7.40
2014,02,13,05,32,7.40
2014,02,13,05,33,7.40
2014,02,13,05,34,7.40
2014,02,13,05,35,7.40
2014,02,13,05,36,7.40
2014,02,13,05,37,7.40
2014,02,13,05,38,7.30
2014,02,13,05,39,7.30
2014,02,13,05,40,7.20
2014,02,13,05,41,7.20
2014,02,13,05,42,7.20
2014,02,13,05,43,7.20
2014,02,13,05,44,7.10
2014,02,13,05,45,7.10
2014,02,13,05,46,7.10
2014,02,13,05,47,7.10
2014,02,13,05,48,7.10
2014,02,13,05,49,7.00
2014,02,13,05,50,7.00
2014,02,13,05,51,7.00
2014,02,13,05,52,7.00
2014,02,13,05,53,7.00
2014,02,13,05,54,6.90
2014,02,13,05,55,6.90
2014,02,13,05,56,6.90
2014,02,13,05,57,6.90
2014,02,13,05,58,7.00
2014,02,13,05,59,7.10
2014,02,13,06,00,7.10
2014,02,13,06,01,7.10
2014,02,13,06,02,7.10
2014,02,13,06,03,7.10
2014,02,13,06,04,7.00
2014,02,13,06,05,7.00
2014,02,13,06,06,6.90
2014,02,13,06,07,6.90
2014,02,13,06,08,6.90
2014,02,13,06,09,6.90
2014,02,13,06,10,7.00
2014,02,13,06,11,7.00
2014,02,13,06,12,7.00
2014,02,13,06,13,7.00
2014,02,13,06,14,7.00
2014,02,13,06,15,7.00
2014,02,13,06,16,7.00
2014,02,13,06,17,7.30
2014,02,13,06,18,7.40
2014,02,13,06,19,7.50
2014,02,13,06,20,7.50
2014,02,13,06,21,7.50
2014,02,13,06,22,7.60
2014,02,13,06,23,7.60
2014,02,13,06,24,7.60
2014,02,13,06,25,7.60
2014,02,13,06,26,7.50
2014,02,13,06,27,7.50
2014,02,13,06,28,7.60
2014,02,13,06,29,7.60
2014,02,13,06,30,7.50
2014,02,13,06,31,7.50
2014,02,13,06,32,7.40
2014,02,13,06,33,7.40
2014,02,13,06,34,7.40
2014,02,13,06,35,7.40
2014,02,13,06,36,7.40
2014,02,13,06,37,7.50
2014,02,13,06,38,7.50
2014,02,13,06,39,7.50
2014,02,13,06,40,7.50
2014,02,13,06,41,7.50
2014,02,13,06,42,7.50
2014,02,13,06,43,7.50
2014,02,13,06,44,7.50
2014,02,13,06,45,7.50
2014,02,13,06,46,7.50
2014,02,13,06,47,7.60
2014,02,13,06,48,7.60
2014,02,13,06,49,7.60
2014,02,13,06,50,7.70
2014,02,13,06,51,7.70
2014,02,13,06,52,7.70
2014,02,13,06,53,7.80
2014,02,13,06,54,7.80
2014,02,13,06,55,7.80
2014,02,13,06,56,7.80
2014,02,13,06,57,7.70
2014,02,13,06,58,7.70
2014,02,13,06,59,7.60
2014,02,13,07,00,7.50
2014,02,13,07,01,7.40
2014,02,13,07,02,7.40
2014,02,13,07,03,7.30
2014,02,13,07,04,7.30
2014,02,13,07,05,7.20
2014,02,13,07,06,7.20
2014,02,13,07,07,7.20
2014,02,13,07,08,7.20
2014,02,13,07,09,7.20
2014,02,13,07,10,7.30
2014,02,13,07,11,7.40
2014,02,13,07,12,7.50
2014,02,13,07,13,7.60
2014,02,13,07,14,7.70
2014,02,13,07,15,7.80
2014,02,13,07,16,7.90
2014,02,13,07,17,8.00
2014,02,13,07,18,8.00
2014,02,13,07,19,8.00
2014,02,13,07,20,7.90
2014,02,13,07,21,7.90
2014,02,13,07,22,7.80
2014,02,13,07,23,7.70
2014,02,13,07,24,7.50
2014,02,13,07,25,7.40
2014,02,13,07,26,7.30
2014,02,13,07,27,7.20
2014,02,13,07,28,7.10
2014,02,13,07,29,7.00
2014,02,13,07,30,7.00
2014,02,13,07,31,7.00
2014,02,13,07,32,7.00
2014,02,13,07,33,7.10
2014,02,13,07,34,7.10
2014,02,13,07,35,7.00
2014,02,13,07,36,7.10
2014,02,13,07,37,7.20
2014,02,13,07,38,7.30
2014,02,13,07,39,7.30
2014,02,13,07,40,7.30
2014,02,13,07,41,7.30
2014,02,13,07,42,7.20
2014,02,13,07,43,7.20
2014,02,13,07,44,7.20
2014,02,13,07,45,7.20
2014,02,13,07,46,7.20
2014,02,13,07,47,7.10
2014,02,13,07,48,7.10
2014,02,13,07,49,7.10
2014,02,13,07,50,7.10
2014,02,13,07,51,7.10
2014,02,13,07,52,7.10
2014,02,13,07,53,7.10
2014,02,13,07,54,7.10
2014,02,13,07,55,7.00
2014,02,13,07,56,7.00
2014,02,13,07,57,7.00
2014,02,13,07,58,7.00
2014,02,13,07,59,6.90
2014,02,13,08,00,6.90
2014,02,13,08,01,7.00
2014,02,13,08,02,7.10
2014,02,13,08,03,7.10
2014,02,13,08,04,7.20
2014,02,13,08,05,7.20
2014,02,13,08,06,7.30
2014,02,13,08,07,7.30
2014,02,13,08,08,7.40
2014,02,13,08,09,7.50
2014,02,13,08,10,7.60
2014,02,13,08,11,7.60
2014,02,13,08,12,7.60
2014,02,13,08,13,7.70
2014,02,13,08,14,7.70
2014,02,13,08,15,7.70
2014,02,13,08,16,7.70
2014,02,13,08,17,7.70
2014,02,13,08,18,7.70
2014,02,13,08,19,7.70
2014,02,13,08,20,7.70
2014,02,13,08,21,7.70
2014,02,13,08,22,7.70
2014,02,13,08,23,7.60
2014,02,13,08,24,7.60
2014,02,13,08,25,7.60
2014,02,13,08,26,7.50
2014,02,13,08,27,7.50
2014,02,13,08,28,7.50
2014,02,13,08,29,7.50
2014,02,13,08,30,7.50
2014,02,13,08,31,7.50
2014,02,13,08,32,7.50
2014,02,13,08,33,7.50
2014,02,13,08,34,7.50
2014,02,13,08,35,7.50
2014,02,13,08,36,7.50
2014,02,13,08,37,7.40
2014,02,13,08,38,7.40
2014,02,13,08,39,7.40
2014,02,13,08,40,7.40
2014,02,13,08,41,7.40
2014,02,13,08,42,7.40
2014,02,13,08,43,7.40
2014,02,13,08,44,7.40
2014,02,13,08,45,7.40
2014,02,13,08,46,7.40
2014,02,13,08,47,7.30
2014,02,13,08,48,7.20
2014,02,13,08,49,7.20
2014,02,13,08,50,7.20
2014,02,13,08,51,7.10
2014,02,13,08,52,7.00
2014,02,13,08,53,6.90
2014,02,13,08,54,6.80
2014,02,13,08,55,6.80
2014,02,13,08,56,6.80
2014,02,13,08,57,6.80
2014,02,13,08,58,6.70
2014,02,13,08,59,6.70
2014,02,13,09,00,6.70
2014,02,13,09,01,6.70
2014,02,13,09,02,6.70
2014,02,13,09,03,6.70
2014,02,13,09,04,6.70
2014,02,13,09,05,6.80
2014,02,13,09,06,6.80
2014,02,13,09,07,6.90
2014,02,13,09,08,7.00
2014,02,13,09,09,7.00
2014,02,13,09,10,7.10
2014,02,13,09,11,7.20
2014,02,13,09,12,7.20
2014,02,13,09,13,7.20
2014,02,13,09,14,7.20
2014,02,13,09,15,7.30
2014,02,13,09,16,7.40
2014,02,13,09,17,7.40
2014,02,13,09,18,7.50
2014,02,13,09,19,7.60
2014,02,13,09,20,7.60
2014,02,13,09,21,7.60
2014,02,13,09,22,7.70
2014,02,13,09,23,7.70
2014,02,13,09,24,7.80
2014,02,13,09,25,7.80
2014,02,13,09,26,7.90
2014,02,13,09,27,8.00
2014,02,13,09,28,8.00
2014,02,13,09,29,8.10
2014,02,13,09,30,8.20
2014,02,13,09,31,8.20
2014,02,13,09,32,8.30
2014,02,13,09,33,8.30
2014,02,13,09,34,8.40
2014,02,13,09,35,8.40
2014,02,13,09,36,8.50
2014,02,13,09,37,8.50
2014,02,13,09,38,8.60
2014,02,13,09,39,8.60
2014,02,13,09,40,8.70
2014,02,13,09,41,8.80
2014,02,13,09,42,8.80
2014,02,13,09,43,8.90
2014,02,13,09,44,9.00
2014,02,13,09,45,9.00
2014,02,13,09,46,9.10
2014,02,13,09,47,9.10
2014,02,13,09,48,9.10
2014,02,13,09,49,9.10
2014,02,13,09,50,9.10
2014,02,13,09,51,9.10
2014,02,13,09,52,9.10
2014,02,13,09,53,9.10
2014,02,13,09,54,9.10
2014,02,13,09,55,9.10
2014,02,13,10,28,8.70
2014,02,13,10,29,8.70
2014,02,13,10,30,8.80
2014,02,13,10,31,8.80
2014,02,13,10,32,8.90
2014,02,13,10,33,8.90
2014,02,13,10,34,9.00
2014,02,13,10,35,9.00
2014,02,13,10,36,9.10
2014,02,13,10,37,9.10
2014,02,13,10,38,9.10
2014,02,13,10,39,9.10
2014,02,13,10,40,9.10
2014,02,13,10,41,9.10
2014,02,13,10,42,9.10
2014,02,13,10,43,9.10
2014,02,13,10,44,9.10
2014,02,13,10,45,9.10
2014,02,13,10,46,9.20
2014,02,13,10,47,9.20
2014,02,13,10,48,9.20
2014,02,13,10,49,9.30
2014,02,13,10,50,9.30
2014,02,13,10,51,9.40
2014,02,13,10,52,9.50
2014,02,13,10,53,9.60
2014,02,13,10,54,9.60
2014,02,13,10,55,9.70
2014,02,13,10,56,9.80
2014,02,13,10,57,9.80
2014,02,13,10,58,9.80
2014,02,13,10,59,9.80
2014,02,13,11,00,9.80
2014,02,13,11,01,9.80
2014,02,13,11,02,9.90
2014,02,13,11,03,9.90
2014,02,13,11,04,9.80
2014,02,13,11,05,9.90
2014,02,13,11,06,9.90
2014,02,13,11,07,9.90
2014,02,13,11,08,9.90
2014,02,13,11,09,10.00
2014,02,13,11,10,10.00
2014,02,13,11,11,10.00
2014,02,13,11,12,10.00
2014,02,13,11,13,10.10
2014,02,13,11,14,10.10
2014,02,13,11,15,10.20
2014,02,13,11,16,10.20
2014,02,13,11,17,10.30
2014,02,13,11,18,10.30
2014,02,13,11,19,10.40
2014,02,13,11,20,10.40
2014,02,13,11,21,10.30
2014,02,13,11,22,10.30
2014,02,13,11,23,10.30
2014,02,13,11,24,10.30
2014,02,13,11,25,10.30
2014,02,13,11,26,10.30
2014,02,13,11,27,10.30
2014,02,13,11,28,10.30
2014,02,13,11,29,10.30
2014,02,13,11,30,10.40
2014,02,13,11,31,10.40
2014,02,13,11,32,10.50
2014,02,13,11,33,10.50
2014,02,13,11,34,10.60
2014,02,13,11,35,10.60
2014,02,13,11,36,10.60
2014,02,13,11,37,10.60
2014,02,13,11,38,10.50
2014,02,13,11,39,10.50
2014,02,13,11,40,10.50
2014,02,13,11,41,10.50
2014,02,13,11,42,10.40
2014,02,13,11,43,10.40
2014,02,13,11,44,10.30
2014,02,13,11,45,10.30
2014,02,13,11,46,10.30
2014,02,13,11,47,10.30
2014,02,13,11,48,10.30
2014,02,13,11,49,10.30
2014,02,13,11,50,10.30
2014,02,13,11,51,10.30
2014,02,13,11,52,10.30
2014,02,13,11,53,10.30
2014,02,13,11,54,10.30
2014,02,13,11,55,10.30
2014,02,13,11,56,10.30
2014,02,13,11,57,10.30
2014,02,13,11,58,10.30
2014,02,13,11,59,10.30
2014,02,13,12,00,10.40
2014,02,13,12,01,10.40
2014,02,13,12,02,10.40
2014,02,13,12,03,10.30
2014,02,13,12,04,10.30
2014,02,13,12,05,10.30
2014,02,13,12,06,10.20
2014,02,13,12,07,10.20
2014,02,13,12,08,10.20
2014,02,13,12,09,10.20
2014,02,13,12,10,10.20
2014,02,13,12,11,10.10
2014,02,13,12,12,10.10
2014,02,13,12,13,10.10
2014,02,13,12,14,10.10
2014,02,13,12,15,10.00
2014,02,13,12,16,10.10
2014,02,13,12,17,10.10
2014,02,13,12,18,10.10
2014,02,13,12,19,10.10
2014,02,13,12,20,10.20
2014,02,13,12,21,10.20
2014,02,13,12,22,10.20
2014,02,13,12,23,10.20
2014,02,13,12,24,10.20
2014,02,13,12,25,10.20
2014,02,13,12,26,10.20
2014,02,13,12,27,10.20
2014,02,13,12,28,10.20
2014,02,13,12,29,10.10
2014,02,13,12,30,10.00
2014,02,13,12,31,10.00
2014,02,13,12,32,10.00
2014,02,13,12,33,10.00
2014,02,13,12,34,9.90
2014,02,13,12,35,9.90
2014,02,13,12,36,9.90
2014,02,13,12,37,9.90
2014,02,13,12,38,9.90
2014,02,13,12,39,9.90
2014,02,13,12,40,9.90
2014,02,13,12,41,9.80
2014,02,13,12,42,9.70
2014,02,13,12,43,9.50
2014,02,13,12,44,9.50
2014,02,13,12,45,9.40
2014,02,13,12,46,9.40
2014,02,13,12,47,9.50
2014,02,13,12,48,9.50
2014,02,13,12,49,9.50
2014,02,13,12,50,9.60
2014,02,13,12,51,9.60
2014,02,13,12,52,9.70
2014,02,13,12,53,9.70
2014,02,13,12,54,9.80
2014,02,13,12,55,9.80
2014,02,13,12,56,9.80
2014,02,13,12,57,9.80
2014,02,13,12,58,9.80
2014,02,13,12,59,9.80
2014,02,13,13,00,9.90
2014,02,13,13,01,10.00
2014,02,13,13,02,10.10
2014,02,13,13,03,10.10
2014,02,13,13,04,10.10
2014,02,13,13,05,10.10
2014,02,13,13,06,10.10
2014,02,13,13,07,10.10
2014,02,13,13,08,10.10
2014,02,13,13,09,10.20
2014,02,13,13,10,10.20
2014,02,13,13,11,10.30
2014,02,13,13,12,10.30
2014,02,13,13,13,10.40
2014,02,13,13,14,10.40
2014,02,13,13,15,10.50
2014,02,13,13,16,10.50
2014,02,13,13,17,10.50
2014,02,13,13,18,10.50
2014,02,13,13,19,10.60
2014,02,13,13,20,10.60
2014,02,13,13,21,10.60
2014,02,13,13,22,10.60
2014,02,13,13,23,10.60
2014,02,13,13,24,10.60
2014,02,13,13,25,10.60
2014,02,13,13,26,10.60
2014,02,13,13,27,10.60
2014,02,13,13,28,10.50
2014,02,13,13,29,10.50
2014,02,13,13,30,10.50
2014,02,13,13,31,10.50
2014,02,13,13,32,10.50
2014,02,13,13,33,10.50
2014,02,13,13,34,10.60
2014,02,13,13,35,10.60
2014,02,13,13,36,10.60
2014,02,13,13,37,10.50
2014,02,13,13,38,10.50
2014,02,13,13,39,10.40
2014,02,13,13,40,10.40
2014,02,13,13,41,10.40
2014,02,13,13,42,10.40
2014,02,13,13,43,10.30
2014,02,13,13,44,10.40
2014,02,13,13,45,10.40
2014,02,13,13,46,10.30
2014,02,13,13,47,10.40
2014,02,13,13,48,10.40
2014,02,13,13,49,10.40
2014,02,13,13,50,10.40
2014,02,13,13,51,10.40
2014,02,13,13,52,10.40
2014,02,13,13,53,10.40
2014,02,13,13,54,10.30
2014,02,13,13,55,10.30
2014,02,13,13,56,10.30
2014,02,13,13,57,10.20
2014,02,13,13,58,10.20
2014,02,13,13,59,10.20
2014,02,13,14,00,10.30
2014,02,13,14,01,10.30
2014,02,13,14,02,10.30
2014,02,13,14,03,10.40
2014,02,13,14,04,10.50
2014,02,13,14,05,10.60
2014,02,13,14,06,10.60
2014,02,13,14,07,10.60
2014,02,13,14,08,10.60
2014,02,13,14,09,10.60
2014,02,13,14,10,10.60
2014,02,13,14,11,10.60
2014,02,13,14,12,10.50
2014,02,13,14,13,10.50
2014,02,13,14,14,10.50
2014,02,13,14,15,10.60
2014,02,13,14,16,10.60
2014,02,13,14,17,10.70
2014,02,13,14,18,10.70
2014,02,13,14,19,10.80
2014,02,13,14,20,10.80
2014,02,13,14,21,10.80
2014,02,13,14,22,10.90
2014,02,13,14,23,10.90
2014,02,13,14,24,10.90
2014,02,13,14,25,10.90
2014,02,13,14,26,10.90
2014,02,13,14,27,10.90
2014,02,13,14,28,10.90
2014,02,13,14,29,10.90
2014,02,13,14,30,10.90
2014,02,13,14,31,10.90
2014,02,13,14,32,10.80
2014,02,13,14,33,10.80
2014,02,13,14,34,10.80
2014,02,13,14,35,10.70
2014,02,13,14,36,10.70
2014,02,13,14,37,10.70
2014,02,13,14,38,10.70
2014,02,13,14,39,10.70
2014,02,13,14,40,10.60
2014,02,13,14,41,10.60
2014,02,13,14,42,10.60
2014,02,13,14,43,10.60
2014,02,13,14,44,10.60
2014,02,13,14,45,10.60
2014,02,13,14,46,10.60
2014,02,13,14,47,10.60
2014,02,13,14,48,10.60
2014,02,13,14,49,10.70
2014,02,13,14,50,10.70
2014,02,13,14,51,10.70
2014,02,13,14,52,10.60
2014,02,13,14,53,10.60
2014,02,13,14,54,10.60
2014,02,13,14,55,10.60
2014,02,13,14,56,10.50
2014,02,13,14,57,10.50
2014,02,13,14,58,10.40
2014,02,13,14,59,10.40
2014,02,13,15,00,10.40
2014,02,13,15,01,10.30
2014,02,13,15,02,10.30
2014,02,13,15,03,10.20
2014,02,13,15,04,10.20
2014,02,13,15,05,10.20
2014,02,13,15,06,10.10
2014,02,13,15,07,10.10
2014,02,13,15,08,10.10
2014,02,13,15,09,10.00
2014,02,13,15,10,10.00
2014,02,13,15,11,10.00
2014,02,13,15,12,10.00
2014,02,13,15,13,10.00
2014,02,13,15,14,10.00
2014,02,13,15,15,10.00
2014,02,13,15,16,10.00
2014,02,13,15,17,10.00
2014,02,13,15,18,10.00
2014,02,13,15,19,10.00
2014,02,13,15,20,10.00
2014,02,13,15,21,9.90
2014,02,13,15,22,9.90
2014,02,13,15,23,9.90
2014,02,13,15,24,9.90
2014,02,13,15,25,9.90
2014,02,13,15,26,9.90
2014,02,13,15,27,9.90
2014,02,13,15,28,9.90
2014,02,13,15,29,9.90
2014,02,13,15,30,9.90
2014,02,13,15,31,9.90
2014,02,13,15,32,10.00
2014,02,13,15,33,10.00
2014,02,13,15,34,10.00
2014,02,13,15,35,10.10
2014,02,13,15,36,10.10
2014,02,13,15,37,10.20
2014,02,13,15,38,10.20
2014,02,13,15,39,10.20
2014,02,13,15,40,10.20
2014,02,13,15,41,10.20
2014,02,13,15,42,10.30
2014,02,13,15,43,10.30
2014,02,13,15,44,10.30
2014,02,13,15,45,10.20
2014,02,13,15,46,10.10
2014,02,13,15,47,9.90
2014,02,13,15,48,9.80
2014,02,13,15,49,9.70
2014,02,13,15,50,9.60
2014,02,13,15,51,9.50
2014,02,13,15,52,9.40
2014,02,13,15,53,9.40
2014,02,13,15,54,9.30
2014,02,13,15,55,9.30
2014,02,13,15,56,9.30
2014,02,13,15,57,9.20
2014,02,13,15,58,9.20
2014,02,13,15,59,9.20
2014,02,13,16,00,9.20
2014,02,13,16,01,9.10
2014,02,13,16,02,9.10
2014,02,13,16,03,9.10
2014,02,13,16,04,9.20
2014,02,13,16,05,9.20
2014,02,13,16,06,9.20
2014,02,13,16,07,9.20
2014,02,13,16,08,9.30
2014,02,13,16,09,9.30
2014,02,13,16,10,9.30
2014,02,13,16,11,9.30
2014,02,13,16,12,9.40
2014,02,13,16,13,9.40
2014,02,13,16,14,9.40
2014,02,13,16,15,9.50
2014,02,13,16,16,9.60
2014,02,13,16,17,9.60
2014,02,13,16,18,9.60
2014,02,13,16,19,9.60
2014,02,13,16,20,9.60
2014,02,13,16,21,9.50
2014,02,13,16,22,9.50
2014,02,13,16,23,9.50
2014,02,13,16,24,9.40
2014,02,13,16,25,9.40
2014,02,13,16,26,9.40
2014,02,13,16,27,9.40
2014,02,13,16,28,9.40
2014,02,13,16,29,9.40
2014,02,13,16,30,9.40
2014,02,13,16,31,9.40
2014,02,13,16,32,9.40
2014,02,13,16,33,9.40
2014,02,13,16,34,9.40
2014,02,13,16,35,9.50
2014,02,13,16,36,9.50
2014,02,13,16,37,9.60
2014,02,13,16,38,9.60
2014,02,13,16,39,9.60
2014,02,13,16,40,9.60
2014,02,13,16,41,9.60
2014,02,13,16,42,9.50
2014,02,13,16,43,9.50
2014,02,13,16,44,9.40
2014,02,13,16,45,9.30
2014,02,13,16,46,9.30
2014,02,13,16,47,9.30
2014,02,13,16,48,9.30
2014,02,13,16,49,9.20
2014,02,13,16,50,9.20
2014,02,13,16,51,9.10
2014,02,13,16,52,8.90
2014,02,13,16,53,8.90
2014,02,13,16,54,8.80
2014,02,13,16,55,8.70
2014,02,13,16,56,8.70
2014,02,13,16,57,8.60
2014,02,13,16,58,8.60
2014,02,13,16,59,8.50
2014,02,13,17,00,8.40
2014,02,13,17,01,8.30
2014,02,13,17,02,8.30
2014,02,13,17,03,8.30
2014,02,13,17,04,8.20
2014,02,13,17,05,8.20
2014,02,13,17,06,8.20
2014,02,13,17,07,8.20
2014,02,13,17,08,8.20
2014,02,13,17,09,8.20
2014,02,13,17,10,8.20
2014,02,13,17,11,8.20
2014,02,13,17,12,8.10
2014,02,13,17,13,8.10
2014,02,13,17,14,8.00
2014,02,13,17,15,7.90
2014,02,13,17,16,7.80
2014,02,13,17,17,7.70
2014,02,13,17,18,7.60
2014,02,13,17,19,7.60
2014,02,13,17,20,7.50
2014,02,13,17,21,7.50
2014,02,13,17,22,7.40
2014,02,13,17,23,7.40
2014,02,13,17,24,7.30
2014,02,13,17,25,7.20
2014,02,13,17,26,7.20
2014,02,13,17,27,7.20
2014,02,13,17,28,7.20
2014,02,13,17,29,7.20
2014,02,13,17,30,7.20
2014,02,13,17,31,7.20
2014,02,13,17,32,7.30
2014,02,13,17,33,7.30
2014,02,13,17,34,7.20
2014,02,13,17,35,7.10
2014,02,13,17,36,6.90
2014,02,13,17,37,6.70
2014,02,13,17,38,6.70
2014,02,13,17,39,6.60
2014,02,13,17,40,6.60
2014,02,13,17,41,6.60
2014,02,13,17,42,6.60
2014,02,13,17,43,6.60
2014,02,13,17,44,6.70
2014,02,13,17,45,6.70
2014,02,13,17,46,6.80
2014,02,13,17,47,6.80
2014,02,13,17,48,6.90
2014,02,13,17,49,7.00
2014,02,13,17,50,7.10
2014,02,13,17,51,7.10
2014,02,13,17,52,7.10
2014,02,13,17,53,7.10
2014,02,13,17,54,7.10
2014,02,13,17,55,7.10
2014,02,13,17,56,7.10
2014,02,13,17,57,6.90
2014,02,13,17,58,6.90
2014,02,13,17,59,6.90
2014,02,13,18,00,6.90
2014,02,13,18,01,7.00
2014,02,13,18,02,7.00
2014,02,13,18,03,7.00
2014,02,13,18,04,6.90
2014,02,13,18,05,6.80
2014,02,13,18,06,6.70
2014,02,13,18,07,6.70
2014,02,13,18,08,6.70
2014,02,13,18,09,6.70
2014,02,13,18,10,6.70
2014,02,13,18,11,6.60
2014,02,13,18,12,6.50
2014,02,13,18,13,6.30
2014,02,13,18,14,6.20
2014,02,13,18,15,6.20
2014,02,13,18,16,6.20
2014,02,13,18,17,6.30
2014,02,13,18,18,6.30
2014,02,13,18,19,6.30
2014,02,13,18,20,6.30
2014,02,13,18,21,6.30
2014,02,13,18,22,6.30
2014,02,13,18,23,6.40
2014,02,13,18,24,6.40
2014,02,13,18,25,6.40
2014,02,13,18,26,6.50
2014,02,13,18,27,6.70